| time (UTC) | temp F | wind direction | speed MPH | gust MPH | rain 1hr in | rain 24hr in | rain mn in | humidity % | barometer mb |
| 20260903091503 | 49 | 5 | 0.0 | 0.0 | 0.00 | 0.00 | 0.00 | 73 | 1032.7 |
| 20260903090002 | 50 | 5 | 0.0 | 0.0 | 0.00 | 0.00 | 0.00 | 73 | 1032.8 |
| 20260903084604 | 50 | 5 | 0.0 | 0.0 | 0.00 | 0.00 | 0.00 | 74 | 1032.8 |
| 20260903083058 | 50 | 5 | 0.0 | 0.0 | 0.00 | 0.00 | 0.00 | 76 | 1032.8 |
| 20260903081554 | 51 | 5 | 0.0 | 0.0 | 0.00 | 0.00 | 0.00 | 75 | 1032.6 |
| 20260903080052 | 52 | 5 | 0.0 | 0.0 | 0.00 | 0.00 | 0.00 | 74 | 1032.5 |
| 20260903074549 | 52 | 5 | 0.0 | 0.0 | 0.00 | 0.00 | 0.00 | 73 | 1032.5 |
| 20260903073054 | 53 | 5 | 0.0 | 0.0 | 0.00 | 0.00 | 0.00 | 73 | 1032.6 |
| 20260903071546 | 53 | 5 | 0.0 | 0.0 | 0.00 | 0.00 | 0.00 | 72 | 1032.7 |
| 20260903070042 | 54 | 5 | 0.0 | 0.0 | 0.00 | 0.00 | 0.00 | 73 | 1032.8 |
| 20260903064538 | 54 | 5 | 0.0 | 0.0 | 0.00 | 0.00 | 0.00 | 72 | 1033.0 |
| 20260903063034 | 55 | 5 | 0.0 | 0.0 | 0.00 | 0.00 | 0.00 | 72 | 1033.0 |
| 20260903061530 | 56 | 5 | 0.0 | 0.0 | 0.00 | 0.00 | 0.00 | 71 | 1033.1 |
| 20260903060027 | 57 | 5 | 0.0 | 0.0 | 0.00 | 0.00 | 0.00 | 70 | 1032.7 |
| 20260903054530 | 57 | 5 | 0.0 | 0.0 | 0.00 | 0.00 | 0.00 | 71 | 1032.7 |
| 20260903053026 | 58 | 5 | 0.0 | 0.0 | 0.00 | 0.00 | 0.00 | 71 | 1032.9 |
| 20260903051525 | 59 | 5 | 0.0 | 0.0 | 0.00 | 0.00 | 0.00 | 70 | 1032.8 |
| 20260903050024 | 59 | 5 | 0.0 | 0.0 | 0.00 | 0.00 | 0.00 | 69 | 1032.8 |
| 20260903044527 | 59 | 5 | 0.0 | 0.0 | 0.00 | 0.00 | 0.00 | 68 | 1032.8 |
| 20260903043027 | 60 | 5 | 0.0 | 0.0 | 0.00 | 0.00 | 0.00 | 67 | 1033.2 |
| 20260903041523 | 59 | 13 | 0.0 | 0.0 | 0.00 | 0.00 | 0.00 | 67 | 1033.4 |
| 20260903040023 | 59 | 13 | 0.0 | 0.0 | 0.00 | 0.00 | 0.00 | 69 | 1033.5 |
| 20260903034522 | 59 | 13 | 0.0 | 0.0 | 0.00 | 0.00 | 0.00 | 66 | 1033.4 |
| 20260903033027 | 60 | 13 | 0.0 | 0.0 | 0.00 | 0.00 | 0.00 | 66 | 1033.5 |
| 20260903031527 | 60 | 13 | 0.0 | 0.0 | 0.00 | 0.00 | 0.00 | 63 | 1033.1 |
| 20260903030023 | 60 | 13 | 0.0 | 0.0 | 0.00 | 0.00 | 0.00 | 66 | 1032.6 |
| 20260903024521 | 60 | 14 | 0.0 | 0.0 | 0.00 | 0.00 | 0.00 | 70 | 1032.7 |
| 20260903023019 | 61 | 14 | 0.0 | 0.0 | 0.00 | 0.00 | 0.00 | 68 | 1032.9 |
| 20260903021521 | 63 | 14 | 0.0 | 0.0 | 0.00 | 0.00 | 0.00 | 62 | 1033.0 |
| 20260903020025 | 64 | 13 | 0.0 | 7.0 | 0.00 | 0.00 | 0.00 | 58 | 1032.6 |
| 20260903014516 | 66 | 348 | 0.0 | 5.0 | 0.00 | 0.00 | 0.00 | 48 | 1032.3 |
| 20260903013017 | 67 | 205 | 0.0 | 0.0 | 0.00 | 0.00 | 0.00 | 48 | 1031.9 |
| 20260903011515 | 68 | 205 | 0.0 | 0.0 | 0.00 | 0.00 | 0.00 | 45 | 1031.8 |
| 20260903010015 | 69 | 205 | 0.0 | 1.0 | 0.00 | 0.00 | 0.00 | 44 | 1031.6 |
| 20260903004514 | 69 | 205 | 0.0 | 0.0 | 0.00 | 0.00 | 0.00 | 44 | 1031.7 |
| 20260903003014 | 70 | 205 | 0.0 | 0.0 | 0.00 | 0.00 | 0.00 | 42 | 1031.4 |
| 20260903001514 | 71 | 205 | 0.0 | 0.0 | 0.00 | 0.00 | 0.00 | 39 | 1031.2 |
| 20260903000033 | 72 | 205 | 0.0 | 0.0 | 0.00 | 0.00 | 0.00 | 37 | 1031.3 |
| 20260902234512 | 73 | 207 | 0.0 | 0.0 | 0.00 | 0.00 | 0.00 | 37 | 1031.3 |
| 20260902233013 | 74 | 207 | 0.0 | 0.0 | 0.00 | 0.00 | 0.00 | 35 | 1031.3 |
| 20260902231509 | 74 | 207 | 0.0 | 2.0 | 0.00 | 0.00 | 0.00 | 34 | 1031.5 |
| 20260902230009 | 74 | 208 | 0.0 | 0.0 | 0.00 | 0.00 | 0.00 | 35 | 1031.7 |
| 20260902224509 | 74 | 208 | 0.0 | 0.0 | 0.00 | 0.00 | 0.00 | 35 | 1031.6 |
| 20260902223019 | 74 | 208 | 0.0 | 2.0 | 0.00 | 0.00 | 0.00 | 34 | 1031.5 |
| 20260902221506 | 75 | 209 | 0.0 | 0.0 | 0.00 | 0.00 | 0.00 | 35 | 1031.4 |
| 20260902220010 | 75 | 209 | 0.0 | 0.0 | 0.00 | 0.00 | 0.00 | 34 | 1031.4 |
| 20260902214515 | 74 | 209 | 0.0 | 0.0 | 0.00 | 0.00 | 0.00 | 35 | 1031.7 |
| 20260902213003 | 75 | 209 | 0.0 | 0.0 | 0.00 | 0.00 | 0.00 | 35 | 1031.8 |
| 20260902211601 | 76 | 209 | 0.0 | 1.0 | 0.00 | 0.00 | 0.00 | 33 | 1032.1 |
| 20260902210059 | 77 | 209 | 0.0 | 0.0 | 0.00 | 0.00 | 0.00 | 32 | 1032.3 |
| 20260902204556 | 77 | 209 | 0.0 | 0.0 | 0.00 | 0.00 | 0.00 | 31 | 1032.4 |
| 20260902203055 | 75 | 209 | 0.0 | 0.0 | 0.00 | 0.00 | 0.00 | 33 | 1032.8 |
| 20260902201553 | 75 | 209 | 0.0 | 0.0 | 0.00 | 0.00 | 0.00 | 31 | 1032.9 |
| 20260902200049 | 75 | 209 | 0.0 | 0.0 | 0.00 | 0.00 | 0.00 | 33 | 1033.2 |
| 20260902194550 | 76 | 209 | 0.0 | 2.0 | 0.00 | 0.00 | 0.00 | 32 | 1033.3 |
| 20260902193049 | 75 | 209 | 0.0 | 3.0 | 0.00 | 0.00 | 0.00 | 32 | 1033.5 |
| 20260902191547 | 78 | 209 | 0.0 | 2.0 | 0.00 | 0.00 | 0.00 | 29 | 1033.6 |
| 20260902190043 | 78 | 209 | 0.0 | 5.0 | 0.00 | 0.00 | 0.00 | 28 | 1033.7 |
| 20260902184544 | 78 | 213 | 0.0 | 4.0 | 0.00 | 0.00 | 0.00 | 29 | 1034.0 |
| 20260902183043 | 76 | 212 | 0.0 | 4.0 | 0.00 | 0.00 | 0.00 | 30 | 1034.2 |
| 20260902181533 | 77 | 215 | 1.0 | 4.0 | 0.00 | 0.00 | 0.00 | 30 | 1034.5 |
| 20260902180034 | 77 | 212 | 0.0 | 4.0 | 0.00 | 0.00 | 0.00 | 29 | 1034.9 |
| 20260902174536 | 77 | 211 | 0.0 | 5.0 | 0.00 | 0.00 | 0.00 | 29 | 1035.1 |
| 20260902173034 | 74 | 201 | 0.0 | 6.0 | 0.00 | 0.00 | 0.00 | 33 | 1035.2 |
| 20260902171524 | 73 | 184 | 0.0 | 3.0 | 0.00 | 0.00 | 0.00 | 33 | 1035.3 |
| 20260902170016 | 72 | 184 | 0.0 | 4.0 | 0.00 | 0.00 | 0.00 | 36 | 1035.3 |
| 20260902164515 | 72 | 187 | 0.0 | 4.0 | 0.00 | 0.00 | 0.00 | 37 | 1035.6 |
| 20260902163013 | 71 | 183 | 0.0 | 4.0 | 0.00 | 0.00 | 0.00 | 38 | 1035.5 |
| 20260902161511 | 70 | 190 | 0.0 | 0.0 | 0.00 | 0.00 | 0.00 | 39 | 1035.5 |
| 20260902160010 | 69 | 190 | 0.0 | 2.0 | 0.00 | 0.00 | 0.00 | 42 | 1035.7 |
| 20260902154509 | 69 | 190 | 0.0 | 3.0 | 0.00 | 0.00 | 0.00 | 43 | 1035.9 |
| 20260902153003 | 68 | 190 | 0.0 | 3.0 | 0.00 | 0.00 | 0.00 | 46 | 1035.8 |
| 20260902151559 | 64 | 190 | 0.0 | 0.0 | 0.00 | 0.00 | 0.00 | 54 | 1035.9 |
| 20260902150053 | 61 | 190 | 0.0 | 0.0 | 0.00 | 0.00 | 0.00 | 61 | 1036.0 |
| 20260902144554 | 59 | 190 | 0.0 | 0.0 | 0.00 | 0.00 | 0.00 | 63 | 1036.0 |
| 20260902143045 | 56 | 190 | 0.0 | 0.0 | 0.00 | 0.00 | 0.00 | 69 | 1036.1 |
| 20260902141554 | 53 | 190 | 0.0 | 0.0 | 0.00 | 0.00 | 0.00 | 72 | 1036.2 |
| 20260902140040 | 52 | 190 | 0.0 | 0.0 | 0.00 | 0.00 | 0.00 | 74 | 1036.0 |
| 20260902134538 | 50 | 190 | 0.0 | 0.0 | 0.00 | 0.00 | 0.00 | 79 | 1036.0 |
| 20260902133050 | 48 | 190 | 0.0 | 0.0 | 0.00 | 0.00 | 0.00 | 79 | 1036.0 |
| 20260902131546 | 47 | 190 | 0.0 | 0.0 | 0.00 | 0.00 | 0.00 | 78 | 1036.0 |
| 20260902130035 | 47 | 190 | 0.0 | 0.0 | 0.00 | 0.00 | 0.00 | 78 | 1036.0 |
| 20260902124531 | 48 | 190 | 0.0 | 0.0 | 0.00 | 0.00 | 0.00 | 78 | 1035.9 |
| 20260902123039 | 48 | 190 | 0.0 | 0.0 | 0.00 | 0.00 | 0.00 | 78 | 1035.7 |
| 20260902121529 | 48 | 190 | 0.0 | 0.0 | 0.00 | 0.00 | 0.00 | 78 | 1035.5 |
| 20260902120033 | 48 | 190 | 0.0 | 0.0 | 0.00 | 0.00 | 0.00 | 79 | 1035.6 |
| 20260902114537 | 48 | 190 | 0.0 | 0.0 | 0.00 | 0.00 | 0.00 | 79 | 1035.4 |
| 20260902113025 | 49 | 190 | 0.0 | 0.0 | 0.00 | 0.00 | 0.00 | 79 | 1035.4 |
| 20260902111523 | 49 | 190 | 0.0 | 0.0 | 0.00 | 0.00 | 0.00 | 78 | 1035.4 |
| 20260902110022 | 49 | 190 | 0.0 | 0.0 | 0.00 | 0.00 | 0.00 | 77 | 1035.5 |
| 20260902104523 | 49 | 190 | 0.0 | 0.0 | 0.00 | 0.00 | 0.00 | 77 | 1035.5 |
| 20260902103022 | 50 | 190 | 0.0 | 0.0 | 0.00 | 0.00 | 0.00 | 76 | 1035.4 |
| 20260902101518 | 50 | 190 | 0.0 | 0.0 | 0.00 | 0.00 | 0.00 | 75 | 1035.3 |
| 20260902100017 | 50 | 190 | 0.0 | 0.0 | 0.00 | 0.00 | 0.00 | 75 | 1035.5 |
| 20260902094516 | 50 | 190 | 0.0 | 0.0 | 0.00 | 0.00 | 0.00 | 77 | 1035.4 |
| 20260902093015 | 50 | 190 | 0.0 | 0.0 | 0.00 | 0.00 | 0.00 | 77 | 1035.5 |